Punta Gorda, FL

2:02 AM EDT on June 22, 2018 (GMT -0400)
Charlotte County

Weather History for KPGD - June, 2018

Change the Weather History Date:

Thursday, June 14, 2018

  Actual Average Record
Temperature  
Mean Temperature 82 °F -  
Max Temperature 91 °F 89 °F 97 °F (2001)
Min Temperature 73 °F 70 °F 66 °F (2007)
Cooling Degree Days 17    
Growing Degree Days 32 (Base 50)    
Moisture  
Dew Point 70 °F    
Average Humidity 64    
Maximum Humidity 87    
Minimum Humidity 46    
Precipitation  
Precipitation 0.00 in - - ()
Sea Level Pressure  
Sea Level Pressure 30.08 in    
Wind  
Wind Speed 4 mph (SW)    
Max Wind Speed 12 mph    
Max Gust Speed -    
Visibility 10 miles    
Events Thunderstorm    
Averages and records for this station are not official NWS values.
T = Trace of Precipitation, MM = Missing Value Source: NWS Daily Summary

Daily Weather History Graph

Daily Weather History Graph

Search for Another Location

Airport or City:

Astronomy

Jun. 14, 2018 Rise Set
Actual Time 6:33 AM EDT 8:23 PM EDT
Civil Twilight 6:07 AM EDT 8:49 PM EDT
Nautical Twilight 5:35 AM EDT 9:21 PM EDT
Astronomical Twilight 5:02 AM EDT 9:54 PM EDT
Moon 7:25 AM EDT (6/14) 9:26 PM EDT (6/14)
Length of Visible Light 14h 42m
Length of Day
13h 49m
New Moon, 1% of the Moon is Illuminated
Jun 14
New Moon
Jun 20
First Quarter
Jun 28
Full
Jul 6
Last Quarter
Jul 12
New

Hourly Weather History & Observations

Time (EDT) Temp. Heat Index Dew Point Humidity Pressure Visibility Wind Dir Wind Speed Gust Speed Precip Events Conditions
12:53 AM 75.0 °F - 71.1 °F 87% 30.11 in 10.0 mi ENE 3.5 mph - N/A   Clear
1:53 AM 75.0 °F - 71.1 °F 87% 30.08 in 10.0 mi East 3.5 mph - N/A   Clear
2:53 AM 75.0 °F - 71.1 °F 87% 30.07 in 10.0 mi SE 3.5 mph - N/A   Clear
3:53 AM 73.9 °F - 70.0 °F 87% 30.06 in 10.0 mi SE 4.6 mph - N/A   Clear
4:53 AM 75.0 °F - 70.0 °F 84% 30.06 in 10.0 mi Calm Calm - N/A   Clear
5:53 AM 73.9 °F - 70.0 °F 87% 30.07 in 10.0 mi Calm Calm - N/A   Clear
6:53 AM 73.9 °F - 70.0 °F 87% 30.08 in 10.0 mi Calm Calm - N/A   Clear
7:53 AM 77.0 °F - 72.0 °F 84% 30.09 in 10.0 mi Calm Calm - N/A   Clear
8:53 AM 84.0 °F 88.4 °F 70.0 °F 63% 30.11 in 10.0 mi North - - N/A   Clear
9:53 AM 84.9 °F 89.4 °F 70.0 °F 61% 30.12 in 10.0 mi Calm Calm - N/A   Clear
10:53 AM 88.0 °F 92.9 °F 70.0 °F 55% 30.12 in 10.0 mi North 4.6 mph - N/A   Partly Cloudy
11:53 AM 89.1 °F 93.7 °F 69.1 °F 52% 30.12 in 10.0 mi Variable 4.6 mph - N/A   Clear
12:22 PM 91.0 °F 95.6 °F 69.1 °F 48% 30.11 in 10.0 mi South 4.6 mph - N/A Thunderstorm Partly Cloudy
12:37 PM 90.0 °F 94.5 °F 69.1 °F 50% 30.11 in 10.0 mi Calm Calm - N/A   Partly Cloudy
12:53 PM 90.0 °F 95.4 °F 70.0 °F 52% 30.11 in 10.0 mi Variable 4.6 mph - N/A Thunderstorm Scattered Clouds
1:20 PM 90.0 °F 93.6 °F 68.0 °F 48% 30.10 in 10.0 mi WSW 6.9 mph - N/A   Partly Cloudy
1:27 PM 90.0 °F 92.8 °F 66.9 °F 46% 30.10 in 10.0 mi West 5.8 mph - N/A Thunderstorm Partly Cloudy
1:51 PM 87.8 °F 93.8 °F 71.6 °F 58% 30.09 in 10.0 mi South 8.1 mph - N/A   Scattered Clouds
1:53 PM 88.0 °F 94.7 °F 72.0 °F 59% 30.09 in 10.0 mi South 8.1 mph - N/A   Mostly Cloudy
2:08 PM 89.1 °F 96.0 °F 72.0 °F 57% 30.08 in 10.0 mi SSE 10.4 mph - N/A Thunderstorm Mostly Cloudy
2:35 PM 89.1 °F 95.0 °F 71.1 °F 55% 30.08 in 10.0 mi NNE 3.5 mph - N/A Thunderstorm Thunderstorm
2:49 PM 89.6 °F 96.2 °F 71.6 °F 55% 30.08 in 10.0 mi ENE 11.5 mph - N/A   Overcast
2:50 PM 88.0 °F 94.7 °F 72.0 °F 59% 30.08 in 10.0 mi East 11.5 mph - N/A   Overcast
3:53 PM 89.1 °F 94.1 °F 70.0 °F 53% 30.06 in 10.0 mi Calm Calm - N/A   Partly Cloudy
4:18 PM 88.0 °F 93.8 °F 71.1 °F 57% 30.06 in 10.0 mi WSW 10.4 mph - N/A Thunderstorm Partly Cloudy
4:33 PM 87.1 °F 91.3 °F 69.1 °F 55% 30.06 in 10.0 mi West 9.2 mph - N/A   Clear
4:53 PM 86.0 °F 91.5 °F 71.1 °F 61% 30.04 in 10.0 mi West 9.2 mph - N/A   Clear
5:53 PM 89.1 °F 93.7 °F 69.1 °F 52% 30.04 in 10.0 mi West 6.9 mph - N/A   Clear
6:53 PM 88.0 °F 92.1 °F 69.1 °F 53% 30.04 in 10.0 mi SW 3.5 mph - N/A   Clear
7:53 PM 87.1 °F 91.3 °F 69.1 °F 55% 30.04 in 10.0 mi SW 5.8 mph - N/A   Clear
8:53 PM 84.9 °F 89.4 °F 70.0 °F 61% 30.05 in 10.0 mi West 5.8 mph - N/A   Clear
9:53 PM 84.0 °F 89.6 °F 72.0 °F 67% 30.08 in 10.0 mi NW 3.5 mph - N/A   Clear
10:53 PM 82.0 °F 87.4 °F 73.0 °F 74% 30.11 in 10.0 mi Calm Calm - N/A   Clear
11:53 PM 80.1 °F 84.2 °F 73.0 °F 79% 30.10 in 10.0 mi Calm Calm - N/A   Clear